Location: Apollinopolis Magna
(24.9792°N, 32.8772°E)
Time: 05:29:59
(UTC+00:00)

IRS-1C Rocket - Pass Details

Date: 02 March 2021
Orbit: 800 x 806 km, 99.0° (Epoch: 12 April)

Event Time Altitude Azimuth Distance (km) Brightness Sun altitude
Rises 16:43:20 0° 171° (S) 3,297 7.2 -12.6°
Reaches altitude 10° 16:45:40 10° 174° (S) 2,370 6.5 -13.1°
Maximum altitude 16:50:52 71° 257° (WSW) 848 4.4 -14.3°
Drops below altitude 10° 16:56:08 10° 342° (NNW) 2,383 6.8 -15.5°
Sets 16:58:29 0° 344° (NNW) 3,317 7.5 -16.0°
